Year,Month,Day,Hour,Minute,Value (Times are PST for temperature in C)
2016,08,24,00,00,16.30
2016,08,24,00,01,16.20
2016,08,24,00,02,16.10
2016,08,24,00,03,16.10
2016,08,24,00,04,16.00
2016,08,24,00,05,16.00
2016,08,24,00,06,15.90
2016,08,24,00,07,15.90
2016,08,24,00,08,15.90
2016,08,24,00,09,15.80
2016,08,24,00,10,15.80
2016,08,24,00,11,15.80
2016,08,24,00,12,15.80
2016,08,24,00,13,15.80
2016,08,24,00,14,15.80
2016,08,24,00,15,15.70
2016,08,24,00,16,15.70
2016,08,24,00,17,15.70
2016,08,24,00,18,15.70
2016,08,24,00,19,15.70
2016,08,24,00,20,15.70
2016,08,24,00,21,15.70
2016,08,24,00,22,15.70
2016,08,24,00,23,15.70
2016,08,24,00,24,15.60
2016,08,24,00,25,15.70
2016,08,24,00,26,15.70
2016,08,24,00,27,15.70
2016,08,24,00,28,15.70
2016,08,24,00,29,15.70
2016,08,24,00,30,15.70
2016,08,24,00,31,15.70
2016,08,24,00,32,15.80
2016,08,24,00,33,15.80
2016,08,24,00,34,15.80
2016,08,24,00,35,15.80
2016,08,24,00,36,15.80
2016,08,24,00,37,15.80
2016,08,24,00,38,15.80
2016,08,24,00,39,15.80
2016,08,24,00,40,15.80
2016,08,24,00,41,15.80
2016,08,24,00,42,15.80
2016,08,24,00,43,15.80
2016,08,24,00,44,15.80
2016,08,24,00,45,15.80
2016,08,24,00,46,15.80
2016,08,24,00,47,15.70
2016,08,24,00,48,15.70
2016,08,24,00,49,15.70
2016,08,24,00,50,15.70
2016,08,24,00,51,15.70
2016,08,24,00,52,15.70
2016,08,24,00,53,15.70
2016,08,24,00,54,15.70
2016,08,24,00,55,15.70
2016,08,24,00,56,15.70
2016,08,24,00,57,15.70
2016,08,24,00,58,15.60
2016,08,24,00,59,15.60
2016,08,24,01,00,15.60
2016,08,24,01,01,15.60
2016,08,24,01,02,15.50
2016,08,24,01,03,15.50
2016,08,24,01,04,15.50
2016,08,24,01,05,15.40
2016,08,24,01,06,15.40
2016,08,24,01,07,15.40
2016,08,24,01,08,15.40
2016,08,24,01,09,15.40
2016,08,24,01,10,15.30
2016,08,24,01,11,15.30
2016,08,24,01,12,15.30
2016,08,24,01,13,15.30
2016,08,24,01,14,15.20
2016,08,24,01,15,15.20
2016,08,24,01,16,15.20
2016,08,24,01,17,15.20
2016,08,24,01,18,15.10
2016,08,24,01,19,15.10
2016,08,24,01,20,15.00
2016,08,24,01,21,15.00
2016,08,24,01,22,14.90
2016,08,24,01,23,14.90
2016,08,24,01,24,14.90
2016,08,24,01,25,14.90
2016,08,24,01,26,14.90
2016,08,24,01,27,14.90
2016,08,24,01,28,14.90
2016,08,24,01,29,14.90
2016,08,24,01,30,14.90
2016,08,24,01,31,14.90
2016,08,24,01,32,14.90
2016,08,24,01,33,14.90
2016,08,24,01,34,14.90
2016,08,24,01,35,14.90
2016,08,24,01,36,14.90
2016,08,24,01,37,14.90
2016,08,24,01,38,15.00
2016,08,24,01,39,15.00
2016,08,24,01,40,15.00
2016,08,24,01,41,15.00
2016,08,24,01,42,15.00
2016,08,24,01,43,15.00
2016,08,24,01,44,15.00
2016,08,24,01,45,15.00
2016,08,24,01,46,15.00
2016,08,24,01,47,14.90
2016,08,24,01,48,14.90
2016,08,24,01,49,14.80
2016,08,24,01,50,14.80
2016,08,24,01,51,14.70
2016,08,24,01,52,14.70
2016,08,24,01,53,14.60
2016,08,24,01,54,14.60
2016,08,24,01,55,14.50
2016,08,24,01,56,14.50
2016,08,24,01,57,14.40
2016,08,24,01,58,14.40
2016,08,24,01,59,14.40
2016,08,24,02,00,14.30
2016,08,24,02,01,14.30
2016,08,24,02,02,14.30
2016,08,24,02,03,14.30
2016,08,24,02,04,14.30
2016,08,24,02,05,14.30
2016,08,24,02,06,14.30
2016,08,24,02,07,14.30
2016,08,24,02,08,14.30
2016,08,24,02,09,14.30
2016,08,24,02,10,14.40
2016,08,24,02,11,14.40
2016,08,24,02,12,14.40
2016,08,24,02,13,14.50
2016,08,24,02,14,14.50
2016,08,24,02,15,14.50
2016,08,24,02,16,14.50
2016,08,24,02,17,14.50
2016,08,24,02,18,14.50
2016,08,24,02,19,14.50
2016,08,24,02,20,14.60
2016,08,24,02,21,14.60
2016,08,24,02,22,14.50
2016,08,24,02,23,14.50
2016,08,24,02,24,14.50
2016,08,24,02,25,14.60
2016,08,24,02,26,14.60
2016,08,24,02,27,14.60
2016,08,24,02,28,14.60
2016,08,24,02,29,14.60
2016,08,24,02,30,14.60
2016,08,24,02,31,14.60
2016,08,24,02,32,14.60
2016,08,24,02,33,14.60
2016,08,24,02,34,14.60
2016,08,24,02,35,14.60
2016,08,24,02,36,14.60
2016,08,24,02,37,14.60
2016,08,24,02,38,14.50
2016,08,24,02,39,14.50
2016,08,24,02,40,14.50
2016,08,24,02,41,14.50
2016,08,24,02,42,14.50
2016,08,24,02,43,14.50
2016,08,24,02,44,14.50
2016,08,24,02,45,14.50
2016,08,24,02,46,14.50
2016,08,24,02,47,14.40
2016,08,24,02,48,14.40
2016,08,24,02,49,14.40
2016,08,24,02,50,14.40
2016,08,24,02,51,14.40
2016,08,24,02,52,14.40
2016,08,24,02,53,14.40
2016,08,24,02,54,14.40
2016,08,24,02,55,14.40
2016,08,24,02,56,14.30
2016,08,24,02,57,14.30
2016,08,24,02,58,14.30
2016,08,24,02,59,14.30
2016,08,24,03,00,14.30
2016,08,24,03,01,14.30
2016,08,24,03,02,14.30
2016,08,24,03,03,14.30
2016,08,24,03,04,14.30
2016,08,24,03,05,14.30
2016,08,24,03,06,14.30
2016,08,24,03,07,14.20
2016,08,24,03,08,14.20
2016,08,24,03,09,14.20
2016,08,24,03,10,14.20
2016,08,24,03,11,14.20
2016,08,24,03,12,14.20
2016,08,24,03,13,14.20
2016,08,24,03,14,14.20
2016,08,24,03,15,14.20
2016,08,24,03,16,14.20
2016,08,24,03,17,14.20
2016,08,24,03,18,14.20
2016,08,24,03,19,14.10
2016,08,24,03,20,14.10
2016,08,24,03,21,14.10
2016,08,24,03,22,14.10
2016,08,24,03,23,14.10
2016,08,24,03,24,14.00
2016,08,24,03,25,14.10
2016,08,24,03,26,14.00
2016,08,24,03,27,14.00
2016,08,24,03,28,14.00
2016,08,24,03,29,14.00
2016,08,24,03,30,14.00
2016,08,24,03,31,13.90
2016,08,24,03,32,13.90
2016,08,24,03,33,13.90
2016,08,24,03,34,13.80
2016,08,24,03,35,13.80
2016,08,24,03,36,13.80
2016,08,24,03,37,13.80
2016,08,24,03,38,13.70
2016,08,24,03,39,13.70
2016,08,24,03,40,13.70
2016,08,24,03,41,13.60
2016,08,24,03,42,13.60
2016,08,24,03,43,13.60
2016,08,24,03,44,13.50
2016,08,24,03,45,13.50
2016,08,24,03,46,13.50
2016,08,24,03,47,13.50
2016,08,24,03,48,13.50
2016,08,24,03,49,13.50
2016,08,24,03,50,13.50
2016,08,24,03,51,13.50
2016,08,24,03,52,13.50
2016,08,24,03,53,13.50
2016,08,24,03,54,13.50
2016,08,24,03,55,13.50
2016,08,24,03,56,13.50
2016,08,24,03,57,13.50
2016,08,24,03,58,13.50
2016,08,24,03,59,13.50
2016,08,24,04,00,13.50
2016,08,24,04,01,13.50
2016,08,24,04,02,13.50
2016,08,24,04,03,13.50
2016,08,24,04,04,13.50
2016,08,24,04,05,13.50
2016,08,24,04,06,13.50
2016,08,24,04,07,13.50
2016,08,24,04,08,13.60
2016,08,24,04,09,13.60
2016,08,24,04,10,13.60
2016,08,24,04,11,13.60
2016,08,24,04,12,13.60
2016,08,24,04,13,13.60
2016,08,24,04,14,13.70
2016,08,24,04,15,13.70
2016,08,24,04,16,13.70
2016,08,24,04,17,13.60
2016,08,24,04,18,13.60
2016,08,24,04,19,13.60
2016,08,24,04,20,13.60
2016,08,24,04,21,13.60
2016,08,24,04,22,13.50
2016,08,24,04,23,13.50
2016,08,24,04,24,13.50
2016,08,24,04,25,13.50
2016,08,24,04,26,13.50
2016,08,24,04,27,13.50
2016,08,24,04,28,13.50
2016,08,24,04,29,13.50
2016,08,24,04,30,13.50
2016,08,24,04,31,13.50
2016,08,24,04,32,13.50
2016,08,24,04,33,13.50
2016,08,24,04,34,13.50
2016,08,24,04,35,13.50
2016,08,24,04,36,13.40
2016,08,24,04,37,13.40
2016,08,24,04,38,13.40
2016,08,24,04,39,13.40
2016,08,24,04,40,13.40
2016,08,24,04,41,13.40
2016,08,24,04,42,13.40
2016,08,24,04,43,13.40
2016,08,24,04,44,13.40
2016,08,24,04,45,13.30
2016,08,24,04,46,13.30
2016,08,24,04,47,13.30
2016,08,24,04,48,13.30
2016,08,24,04,49,13.20
2016,08,24,04,50,13.20
2016,08,24,04,51,13.20
2016,08,24,04,52,13.10
2016,08,24,04,53,13.10
2016,08,24,04,54,13.10
2016,08,24,04,55,13.10
2016,08,24,04,56,13.10
2016,08,24,04,57,13.00
2016,08,24,04,58,13.00
2016,08,24,04,59,13.00
2016,08,24,05,00,12.90
2016,08,24,05,01,12.90
2016,08,24,05,02,12.90
2016,08,24,05,03,12.90
2016,08,24,05,04,12.90
2016,08,24,05,05,12.90
2016,08,24,05,06,12.90
2016,08,24,05,07,12.90
2016,08,24,05,08,13.00
2016,08,24,05,09,13.00
2016,08,24,05,10,13.00
2016,08,24,05,11,13.00
2016,08,24,05,12,13.00
2016,08,24,05,13,13.00
2016,08,24,05,14,13.00
2016,08,24,05,15,13.00
2016,08,24,05,16,13.00
2016,08,24,05,17,13.00
2016,08,24,05,18,13.00
2016,08,24,05,19,13.00
2016,08,24,05,20,13.00
2016,08,24,05,21,12.90
2016,08,24,05,22,12.90
2016,08,24,05,23,12.90
2016,08,24,05,24,13.00
2016,08,24,05,25,13.00
2016,08,24,05,26,13.00
2016,08,24,05,27,12.90
2016,08,24,05,28,12.90
2016,08,24,05,29,12.90
2016,08,24,05,30,12.90
2016,08,24,05,31,12.90
2016,08,24,05,32,12.90
2016,08,24,05,33,12.90
2016,08,24,05,34,12.90
2016,08,24,05,35,12.90
2016,08,24,05,36,12.90
2016,08,24,05,37,13.00
2016,08,24,05,38,12.90
2016,08,24,05,39,12.90
2016,08,24,05,40,13.00
2016,08,24,05,41,13.00
2016,08,24,05,42,13.00
2016,08,24,05,43,13.00
2016,08,24,05,44,13.00
2016,08,24,05,45,13.00
2016,08,24,05,46,13.00
2016,08,24,05,47,13.00
2016,08,24,05,48,12.90
2016,08,24,05,49,12.90
2016,08,24,05,50,12.90
2016,08,24,05,51,12.90
2016,08,24,05,52,12.90
2016,08,24,05,53,12.90
2016,08,24,05,54,12.90
2016,08,24,05,55,12.80
2016,08,24,05,56,12.80
2016,08,24,05,57,12.80
2016,08,24,05,58,12.80
2016,08,24,05,59,12.80
2016,08,24,06,00,12.80
2016,08,24,06,01,12.80
2016,08,24,06,02,12.80
2016,08,24,06,03,12.70
2016,08,24,06,04,12.70
2016,08,24,06,05,12.70
2016,08,24,06,06,12.70
2016,08,24,06,07,12.70
2016,08,24,06,08,12.70
2016,08,24,06,09,12.70
2016,08,24,06,10,12.70
2016,08,24,06,11,12.60
2016,08,24,06,12,12.60
2016,08,24,06,13,12.50
2016,08,24,06,14,12.50
2016,08,24,06,15,12.40
2016,08,24,06,16,12.40
2016,08,24,06,17,12.40
2016,08,24,06,18,12.30
2016,08,24,06,19,12.30
2016,08,24,06,20,12.30
2016,08,24,06,21,12.30
2016,08,24,06,22,12.30
2016,08,24,06,23,12.30
2016,08,24,06,24,12.30
2016,08,24,06,25,12.30
2016,08,24,06,26,12.20
2016,08,24,06,27,12.30
2016,08,24,06,28,12.30
2016,08,24,06,29,12.30
2016,08,24,06,30,12.30
2016,08,24,06,31,12.30
2016,08,24,06,32,12.30
2016,08,24,06,33,12.30
2016,08,24,06,34,12.30
2016,08,24,06,35,12.30
2016,08,24,06,36,12.30
2016,08,24,06,37,12.30
2016,08,24,06,38,12.30
2016,08,24,06,39,12.30
2016,08,24,06,40,12.30
2016,08,24,06,41,12.40
2016,08,24,06,42,12.40
2016,08,24,06,43,12.40
2016,08,24,06,44,12.40
2016,08,24,06,45,12.50
2016,08,24,06,46,12.50
2016,08,24,06,47,12.60
2016,08,24,06,48,12.60
2016,08,24,06,49,12.60
2016,08,24,06,50,12.60
2016,08,24,06,51,12.60
2016,08,24,06,52,12.70
2016,08,24,06,53,12.70
2016,08,24,06,54,12.80
2016,08,24,06,55,12.80
2016,08,24,06,56,12.80
2016,08,24,06,57,12.80
2016,08,24,06,58,12.80
2016,08,24,06,59,12.80
2016,08,24,07,00,12.80
2016,08,24,07,01,12.80
2016,08,24,07,02,12.90
2016,08,24,07,03,12.90
2016,08,24,07,04,12.90
2016,08,24,07,05,12.90
2016,08,24,07,06,13.00
2016,08,24,07,07,13.00
2016,08,24,07,08,13.00
2016,08,24,07,09,13.10
2016,08,24,07,10,13.10
2016,08,24,07,11,13.10
2016,08,24,07,12,13.20
2016,08,24,07,13,13.20
2016,08,24,07,14,13.20
2016,08,24,07,15,13.20
2016,08,24,07,16,13.30
2016,08,24,07,17,13.30
2016,08,24,07,18,13.30
2016,08,24,07,19,13.40
2016,08,24,07,20,13.50
2016,08,24,07,21,13.60
2016,08,24,07,22,13.70
2016,08,24,07,23,13.70
2016,08,24,07,24,13.80
2016,08,24,07,25,13.90
2016,08,24,07,26,13.90
2016,08,24,07,27,14.00
2016,08,24,07,28,14.10
2016,08,24,07,29,14.10
2016,08,24,07,30,14.10
2016,08,24,07,31,14.10
2016,08,24,07,32,14.20
2016,08,24,07,33,14.20
2016,08,24,07,34,14.20
2016,08,24,07,35,14.20
2016,08,24,07,36,14.30
2016,08,24,07,37,14.30
2016,08,24,07,38,14.40
2016,08,24,07,39,14.40
2016,08,24,07,40,14.50
2016,08,24,07,41,14.60
2016,08,24,07,42,14.60
2016,08,24,07,43,14.70
2016,08,24,07,44,14.70
2016,08,24,07,45,14.70
2016,08,24,07,46,14.80
2016,08,24,07,47,14.80
2016,08,24,07,48,14.80
2016,08,24,07,49,14.80
2016,08,24,07,50,14.90
2016,08,24,07,51,15.00
2016,08,24,07,52,15.00
2016,08,24,07,53,15.00
2016,08,24,07,54,15.10
2016,08,24,07,55,15.10
2016,08,24,07,56,15.10
2016,08,24,07,57,15.20
2016,08,24,07,58,15.20
2016,08,24,07,59,15.30
2016,08,24,08,00,15.30
2016,08,24,08,01,15.40
2016,08,24,08,02,15.50
2016,08,24,08,03,15.60
2016,08,24,08,04,15.70
2016,08,24,08,05,15.80
2016,08,24,08,06,15.90
2016,08,24,08,07,15.90
2016,08,24,08,08,16.00
2016,08,24,08,09,16.10
2016,08,24,08,10,16.10
2016,08,24,08,11,16.10
2016,08,24,08,12,16.20
2016,08,24,08,13,16.20
2016,08,24,08,14,16.30
2016,08,24,08,15,16.30
2016,08,24,08,16,16.30
2016,08,24,08,17,16.40
2016,08,24,08,18,16.50
2016,08,24,08,19,16.50
2016,08,24,08,20,16.60
2016,08,24,08,21,16.70
2016,08,24,08,22,16.80
2016,08,24,08,23,16.90
2016,08,24,08,24,17.10
2016,08,24,08,25,17.20
2016,08,24,08,26,17.30
2016,08,24,08,27,17.50
2016,08,24,08,28,17.60
2016,08,24,08,29,17.70
2016,08,24,08,30,17.80
2016,08,24,08,31,17.90
2016,08,24,08,32,17.90
2016,08,24,08,33,18.00
2016,08,24,08,34,18.10
2016,08,24,08,35,18.20
2016,08,24,08,36,18.20
2016,08,24,08,37,18.20
2016,08,24,08,38,18.30
2016,08,24,08,39,18.30
2016,08,24,08,40,18.30
2016,08,24,08,41,18.30
2016,08,24,08,42,18.30
2016,08,24,08,43,18.40
2016,08,24,08,44,18.40
2016,08,24,08,45,18.40
2016,08,24,08,46,18.40
2016,08,24,08,47,18.50
2016,08,24,08,48,18.60
2016,08,24,08,49,18.60
2016,08,24,08,50,18.70
2016,08,24,08,51,18.70
2016,08,24,08,52,18.80
2016,08,24,08,53,18.90
2016,08,24,08,54,19.00
2016,08,24,08,55,19.20
2016,08,24,08,56,19.30
2016,08,24,08,57,19.40
2016,08,24,08,58,19.50
2016,08,24,08,59,19.60
2016,08,24,09,00,19.70
2016,08,24,09,01,19.80
2016,08,24,09,02,19.80
2016,08,24,09,03,19.90
2016,08,24,09,04,20.00
2016,08,24,09,05,20.10
2016,08,24,09,06,20.20
2016,08,24,09,07,20.20
2016,08,24,09,08,20.30
2016,08,24,09,09,20.30
2016,08,24,09,10,20.40
2016,08,24,09,11,20.40
2016,08,24,09,12,20.50
2016,08,24,09,13,20.50
2016,08,24,09,14,20.60
2016,08,24,09,15,20.60
2016,08,24,09,16,20.60
2016,08,24,09,17,20.60
2016,08,24,09,18,20.70
2016,08,24,09,19,20.80
2016,08,24,09,20,20.80
2016,08,24,09,21,20.90
2016,08,24,09,22,21.00
2016,08,24,09,23,21.00
2016,08,24,09,24,21.10
2016,08,24,09,25,21.10
2016,08,24,09,26,21.20
2016,08,24,09,27,21.20
2016,08,24,09,28,21.30
2016,08,24,09,29,21.30
2016,08,24,09,30,21.30
2016,08,24,09,31,21.30
2016,08,24,09,32,21.20
2016,08,24,09,33,21.20
2016,08,24,09,34,21.00
2016,08,24,09,35,20.90
2016,08,24,09,36,20.70
2016,08,24,09,37,20.50
2016,08,24,09,38,20.30
2016,08,24,09,39,20.10
2016,08,24,09,40,20.00
2016,08,24,09,41,19.80
2016,08,24,09,42,19.80
2016,08,24,09,43,19.70
2016,08,24,09,44,19.70
2016,08,24,09,45,19.60
2016,08,24,09,46,19.50
2016,08,24,09,47,19.50
2016,08,24,09,48,19.40
2016,08,24,09,49,19.40
2016,08,24,09,50,19.40
2016,08,24,09,51,19.40
2016,08,24,09,52,19.40
2016,08,24,09,53,19.40
2016,08,24,09,54,19.40
2016,08,24,09,55,19.50
2016,08,24,09,56,19.50
2016,08,24,09,57,19.50
2016,08,24,09,58,19.60
2016,08,24,09,59,19.60
2016,08,24,10,00,19.60
2016,08,24,10,01,19.60
2016,08,24,10,02,19.60
2016,08,24,10,03,19.70
2016,08,24,10,04,19.70
2016,08,24,10,05,19.80
2016,08,24,10,06,19.90
2016,08,24,10,07,19.90
2016,08,24,10,08,20.00
2016,08,24,10,09,20.10
2016,08,24,10,10,20.20
2016,08,24,10,11,20.20
2016,08,24,10,12,20.20
2016,08,24,10,13,20.30
2016,08,24,10,14,20.30
2016,08,24,10,15,20.30
2016,08,24,10,16,20.40
2016,08,24,10,17,20.40
2016,08,24,10,18,20.40
2016,08,24,10,19,20.40
2016,08,24,10,20,20.40
2016,08,24,10,21,20.50
2016,08,24,10,22,20.50
2016,08,24,10,23,20.60
2016,08,24,10,24,20.60
2016,08,24,10,25,20.60
2016,08,24,10,26,20.70
2016,08,24,10,27,20.80
2016,08,24,10,28,20.80
2016,08,24,10,29,20.90
2016,08,24,10,30,21.10
2016,08,24,10,31,21.20
2016,08,24,10,32,21.30
2016,08,24,10,33,21.50
2016,08,24,10,34,21.80
2016,08,24,10,35,22.00
2016,08,24,10,36,22.20
2016,08,24,10,37,22.40
2016,08,24,10,38,22.60
2016,08,24,10,39,22.80
2016,08,24,10,40,23.00
2016,08,24,10,41,23.10
2016,08,24,10,42,23.30
2016,08,24,10,43,23.40
2016,08,24,10,44,23.50
2016,08,24,10,45,23.60
2016,08,24,10,46,23.60
2016,08,24,10,47,23.50
2016,08,24,10,48,23.40
2016,08,24,10,49,23.30
2016,08,24,10,50,23.10
2016,08,24,10,51,23.00
2016,08,24,10,52,23.00
2016,08,24,10,53,22.90
2016,08,24,10,54,22.90
2016,08,24,10,55,22.90
2016,08,24,10,56,22.90
2016,08,24,10,57,22.80
2016,08,24,10,58,22.70
2016,08,24,10,59,22.70
2016,08,24,11,00,22.50
2016,08,24,11,01,22.40
2016,08,24,11,02,22.20
2016,08,24,11,03,22.10
2016,08,24,11,04,22.00
2016,08,24,11,05,21.90
2016,08,24,11,06,21.80
2016,08,24,11,07,21.60
2016,08,24,11,08,21.50
2016,08,24,11,09,21.40
2016,08,24,11,10,21.40
2016,08,24,11,11,21.40
2016,08,24,11,12,21.40
2016,08,24,11,13,21.40
2016,08,24,11,14,21.40
2016,08,24,11,15,21.50
2016,08,24,11,16,21.50
2016,08,24,11,17,21.60
2016,08,24,11,18,21.60
2016,08,24,11,19,21.60
2016,08,24,11,20,21.60
2016,08,24,11,21,21.60
2016,08,24,11,22,21.50
2016,08,24,11,23,21.50
2016,08,24,11,24,21.40
2016,08,24,11,25,21.40
2016,08,24,11,26,21.40
2016,08,24,11,27,21.40
2016,08,24,11,28,21.40
2016,08,24,11,29,21.50
2016,08,24,11,30,21.50
2016,08,24,11,31,21.60
2016,08,24,11,32,21.60
2016,08,24,11,33,21.50
2016,08,24,11,34,21.40
2016,08,24,11,35,21.40
2016,08,24,11,36,21.50
2016,08,24,11,37,21.40
2016,08,24,11,38,21.50
2016,08,24,11,39,21.50
2016,08,24,11,40,21.50
2016,08,24,11,41,21.40
2016,08,24,11,42,21.40
2016,08,24,11,43,21.40
2016,08,24,11,44,21.40
2016,08,24,11,45,21.40
2016,08,24,11,46,21.50
2016,08,24,11,47,21.50
2016,08,24,11,48,21.60
2016,08,24,11,49,21.70
2016,08,24,11,50,21.90
2016,08,24,11,51,22.10
2016,08,24,11,52,22.20
2016,08,24,11,53,22.30
2016,08,24,11,54,22.40
2016,08,24,11,55,22.50
2016,08,24,11,56,22.60
2016,08,24,11,57,22.60
2016,08,24,11,58,22.70
2016,08,24,11,59,22.60
2016,08,24,12,00,22.60
2016,08,24,12,01,22.50
2016,08,24,12,02,22.40
2016,08,24,12,03,22.40
2016,08,24,12,04,22.50
2016,08,24,12,05,22.50
2016,08,24,12,06,22.60
2016,08,24,12,07,22.60
2016,08,24,12,08,22.70
2016,08,24,12,09,22.80
2016,08,24,12,10,22.80
2016,08,24,12,11,22.80
2016,08,24,12,12,22.80
2016,08,24,12,13,22.90
2016,08,24,12,14,22.90
2016,08,24,12,15,23.00
2016,08,24,12,16,23.00
2016,08,24,12,17,23.00
2016,08,24,12,18,22.90
2016,08,24,12,19,23.00
2016,08,24,12,20,22.90
2016,08,24,12,21,22.80
2016,08,24,12,22,22.80
2016,08,24,12,23,22.80
2016,08,24,12,24,22.80
2016,08,24,12,25,22.80
2016,08,24,12,26,22.80
2016,08,24,12,27,22.90
2016,08,24,12,28,23.00
2016,08,24,12,29,23.10
2016,08,24,12,30,23.10
2016,08,24,12,31,23.10
2016,08,24,12,32,23.10
2016,08,24,12,33,23.10
2016,08,24,12,34,23.10
2016,08,24,12,35,23.10
2016,08,24,12,36,23.10
2016,08,24,12,37,23.10
2016,08,24,12,38,23.00
2016,08,24,12,39,23.10
2016,08,24,12,40,23.10
2016,08,24,12,41,23.30
2016,08,24,12,42,23.40
2016,08,24,12,43,23.50
2016,08,24,12,44,23.60
2016,08,24,12,45,23.60
2016,08,24,12,46,23.50
2016,08,24,12,47,23.30
2016,08,24,12,48,23.20
2016,08,24,12,49,23.10
2016,08,24,12,50,23.00
2016,08,24,12,51,23.00
2016,08,24,12,52,23.10
2016,08,24,12,53,23.00
2016,08,24,12,54,23.00
2016,08,24,12,55,22.90
2016,08,24,12,56,22.90
2016,08,24,12,57,22.90
2016,08,24,12,58,22.90
2016,08,24,12,59,22.90
2016,08,24,13,00,23.00
2016,08,24,13,01,23.10
2016,08,24,13,02,23.20
2016,08,24,13,03,23.20
2016,08,24,13,04,23.20
2016,08,24,13,05,23.30
2016,08,24,13,06,23.30
2016,08,24,13,07,23.30
2016,08,24,13,08,23.30
2016,08,24,13,09,23.40
2016,08,24,13,10,23.40
2016,08,24,13,11,23.40
2016,08,24,13,12,23.40
2016,08,24,13,13,23.50
2016,08,24,13,14,23.50
2016,08,24,13,15,23.60
2016,08,24,13,16,23.50
2016,08,24,13,17,23.40
2016,08,24,13,18,23.30
2016,08,24,13,19,23.20
2016,08,24,13,20,23.20
2016,08,24,13,21,23.30
2016,08,24,13,22,23.30
2016,08,24,13,23,23.30
2016,08,24,13,24,23.30
2016,08,24,13,25,23.30
2016,08,24,13,26,23.20
2016,08,24,13,27,23.20
2016,08,24,13,28,23.30
2016,08,24,13,29,23.20
2016,08,24,13,30,23.20
2016,08,24,13,31,23.20
2016,08,24,13,32,23.30
2016,08,24,13,33,23.40
2016,08,24,13,34,23.50
2016,08,24,13,35,23.60
2016,08,24,13,36,23.70
2016,08,24,13,37,23.80
2016,08,24,13,38,23.90
2016,08,24,13,39,24.00
2016,08,24,13,40,24.10
2016,08,24,13,41,24.30
2016,08,24,13,42,24.40
2016,08,24,13,43,24.50
2016,08,24,13,44,24.50
2016,08,24,13,45,24.60
2016,08,24,13,46,24.60
2016,08,24,13,47,24.60
2016,08,24,13,48,24.60
2016,08,24,13,49,24.60
2016,08,24,13,50,24.50
2016,08,24,13,51,24.50
2016,08,24,13,52,24.40
2016,08,24,13,53,24.30
2016,08,24,13,54,24.10
2016,08,24,13,55,24.10
2016,08,24,13,56,24.10
2016,08,24,13,57,24.00
2016,08,24,13,58,24.10
2016,08,24,13,59,24.10
2016,08,24,14,00,24.10
2016,08,24,14,01,24.20
2016,08,24,14,02,24.20
2016,08,24,14,03,24.30
2016,08,24,14,04,24.40
2016,08,24,14,05,24.50
2016,08,24,14,06,24.50
2016,08,24,14,07,24.60
2016,08,24,14,08,24.60
2016,08,24,14,09,24.60
2016,08,24,14,10,24.60
2016,08,24,14,11,24.70
2016,08,24,14,12,24.70
2016,08,24,14,13,24.70
2016,08,24,14,14,24.70
2016,08,24,14,15,24.70
2016,08,24,14,16,24.70
2016,08,24,14,17,24.80
2016,08,24,14,18,24.80
2016,08,24,14,19,24.80
2016,08,24,14,20,24.80
2016,08,24,14,21,24.80
2016,08,24,14,22,24.50
2016,08,24,14,23,24.30
2016,08,24,14,24,24.00
2016,08,24,14,25,23.90
2016,08,24,14,26,23.70
2016,08,24,14,27,23.50
2016,08,24,14,28,23.30
2016,08,24,14,29,23.30
2016,08,24,14,30,23.20
2016,08,24,14,31,23.30
2016,08,24,14,32,23.30
2016,08,24,14,33,23.30
2016,08,24,14,34,23.30
2016,08,24,14,35,23.30
2016,08,24,14,36,23.30
2016,08,24,14,37,23.30
2016,08,24,14,38,23.30
2016,08,24,14,39,23.40
2016,08,24,14,40,23.40
2016,08,24,14,41,23.50
2016,08,24,14,42,23.60
2016,08,24,14,43,23.70
2016,08,24,14,44,23.70
2016,08,24,14,45,23.80
2016,08,24,14,46,23.80
2016,08,24,14,47,23.80
2016,08,24,14,48,23.70
2016,08,24,14,49,23.70
2016,08,24,14,50,23.70
2016,08,24,14,51,23.70
2016,08,24,14,52,23.70
2016,08,24,14,53,23.70
2016,08,24,14,54,23.70
2016,08,24,14,55,23.80
2016,08,24,14,56,23.80
2016,08,24,14,57,23.80
2016,08,24,14,58,23.90
2016,08,24,14,59,24.00
2016,08,24,15,00,24.20
2016,08,24,15,01,24.30
2016,08,24,15,02,24.30
2016,08,24,15,03,24.40
2016,08,24,15,04,24.40
2016,08,24,15,05,24.50
2016,08,24,15,06,24.60
2016,08,24,15,07,24.70
2016,08,24,15,08,24.90
2016,08,24,15,09,24.90
2016,08,24,15,10,25.00
2016,08,24,15,11,25.00
2016,08,24,15,12,25.00
2016,08,24,15,13,25.00
2016,08,24,15,14,25.10
2016,08,24,15,15,25.10
2016,08,24,15,16,25.10
2016,08,24,15,17,25.30
2016,08,24,15,18,25.30
2016,08,24,15,19,25.30
2016,08,24,15,20,25.30
2016,08,24,15,21,25.30
2016,08,24,15,22,25.30
2016,08,24,15,23,25.30
2016,08,24,15,24,25.40
2016,08,24,15,25,25.40
2016,08,24,15,26,25.50
2016,08,24,15,27,25.60
2016,08,24,15,28,25.80
2016,08,24,15,29,25.90
2016,08,24,15,30,25.90
2016,08,24,15,31,25.90
2016,08,24,15,32,25.90
2016,08,24,15,33,26.00
2016,08,24,15,34,26.00
2016,08,24,15,35,26.00
2016,08,24,15,36,25.90
2016,08,24,15,37,25.80
2016,08,24,15,38,25.80
2016,08,24,15,39,25.90
2016,08,24,15,40,26.00
2016,08,24,15,41,26.10
2016,08,24,15,42,26.20
2016,08,24,15,43,26.20
2016,08,24,15,44,26.20
2016,08,24,15,45,26.20
2016,08,24,15,46,26.30
2016,08,24,15,47,26.40
2016,08,24,15,48,26.50
2016,08,24,15,49,26.70
2016,08,24,15,50,26.70
2016,08,24,15,51,26.80
2016,08,24,15,52,26.90
2016,08,24,15,53,27.00
2016,08,24,15,54,27.00
2016,08,24,15,55,27.10
2016,08,24,15,56,27.10
2016,08,24,15,57,27.10
2016,08,24,15,58,27.20
2016,08,24,15,59,27.20
2016,08,24,16,00,27.30
2016,08,24,16,01,27.40
2016,08,24,16,02,27.40
2016,08,24,16,03,27.50
2016,08,24,16,04,27.60
2016,08,24,16,05,27.60
2016,08,24,16,06,27.70
2016,08,24,16,07,27.70
2016,08,24,16,08,27.80
2016,08,24,16,09,27.80
2016,08,24,16,10,27.90
2016,08,24,16,11,27.90
2016,08,24,16,12,28.00
2016,08,24,16,13,28.10
2016,08,24,16,14,28.20
2016,08,24,16,15,28.30
2016,08,24,16,16,28.30
2016,08,24,16,17,28.30
2016,08,24,16,18,28.20
2016,08,24,16,19,28.10
2016,08,24,16,20,28.00
2016,08,24,16,21,27.90
2016,08,24,16,22,27.80
2016,08,24,16,23,27.60
2016,08,24,16,24,27.30
2016,08,24,16,25,27.00
2016,08,24,16,26,26.80
2016,08,24,16,27,26.80
2016,08,24,16,28,26.70
2016,08,24,16,29,26.70
2016,08,24,16,30,26.80
2016,08,24,16,31,26.90
2016,08,24,16,32,27.10
2016,08,24,16,33,27.20
2016,08,24,16,34,27.20
2016,08,24,16,35,27.20
2016,08,24,16,36,27.20
2016,08,24,16,37,27.20
2016,08,24,16,38,27.20
2016,08,24,16,39,27.30
2016,08,24,16,40,27.30
2016,08,24,16,41,27.40
2016,08,24,16,42,27.40
2016,08,24,16,43,27.50
2016,08,24,16,44,27.50
2016,08,24,16,45,27.60
2016,08,24,16,46,27.70
2016,08,24,16,47,27.80
2016,08,24,16,48,27.80
2016,08,24,16,49,27.90
2016,08,24,16,50,27.90
2016,08,24,16,51,27.90
2016,08,24,16,52,28.00
2016,08,24,16,53,28.10
2016,08,24,16,54,28.20
2016,08,24,16,55,28.20
2016,08,24,16,56,28.20
2016,08,24,16,57,28.20
2016,08,24,16,58,28.30
2016,08,24,16,59,28.30
2016,08,24,17,00,28.30
2016,08,24,17,01,28.30
2016,08,24,17,02,28.30
2016,08,24,17,03,28.30
2016,08,24,17,04,28.30
2016,08,24,17,05,28.30
2016,08,24,17,06,28.30
2016,08,24,17,07,28.30
2016,08,24,17,08,28.40
2016,08,24,17,09,28.40
2016,08,24,17,10,28.40
2016,08,24,17,11,28.40
2016,08,24,17,12,28.40
2016,08,24,17,13,28.40
2016,08,24,17,14,28.30
2016,08,24,17,15,28.10
2016,08,24,17,16,27.90
2016,08,24,17,17,27.80
2016,08,24,17,18,27.70
2016,08,24,17,19,27.60